EDV5050 KMCO-KCVG

Flight info

Callsign EDV5050
Flight time 1h 41m
Altitude 36000
Route JEEMY4 PAINN SHRKS Q77 TEUFL/N0442F370 Q77 WIGVO IRQ/N0439F360 J99 VXV JAKIE7
Aircraft CRJ9/M-SDFGIRWY/S

Departure

Time 2026-04-26 00:45
Airport Orlando International Airport (KMCO)

Arrival

Time 2026-04-26 02:27
Airport Cincinnati Northern Kentucky International Airport (KCVG)
Time Latitude Longitude Altitude Speed Heading
2026-04-26 00:24 28.42898 -81.30057 101 ft 0 kts 182°
2026-04-26 00:35 28.42903 -81.30057 101 ft 3 kts 182°
2026-04-26 00:35 28.42930 -81.30056 101 ft 4 kts 182°
2026-04-26 00:35 28.42953 -81.30055 101 ft 2 kts 182°
2026-04-26 00:35 28.42973 -81.30058 101 ft 4 kts 118°
2026-04-26 00:36 28.42973 -81.30082 101 ft 4 kts 71°
2026-04-26 00:36 28.42967 -81.30100 101 ft 0 kts 71°
2026-04-26 00:39 28.42969 -81.30093 101 ft 4 kts 71°
2026-04-26 00:39 28.42977 -81.30055 101 ft 6 kts 83°
2026-04-26 00:39 28.42975 -81.30006 101 ft 7 kts 105°
2026-04-26 00:39 28.42963 -81.29973 101 ft 7 kts 116°
2026-04-26 00:40 28.42929 -81.29910 101 ft 7 kts 124°
2026-04-26 00:40 28.42913 -81.29855 100 ft 8 kts 94°
2026-04-26 00:40 28.42933 -81.29806 101 ft 6 kts 27°
2026-04-26 00:40 28.42997 -81.29799 101 ft 14 kts 359°
2026-04-26 00:41 28.43098 -81.29801 102 ft 15 kts 359°
2026-04-26 00:41 28.43199 -81.29801 102 ft 15 kts 360°
2026-04-26 00:41 28.43301 -81.29803 101 ft 15 kts 358°
2026-04-26 00:41 28.43403 -81.29804 102 ft 14 kts
2026-04-26 00:42 28.43505 -81.29805 102 ft 12 kts 359°
2026-04-26 00:42 28.43549 -81.29786 102 ft 6 kts 63°
2026-04-26 00:42 28.43550 -81.29731 101 ft 8 kts 91°
2026-04-26 00:42 28.43550 -81.29694 101 ft 1 kts 89°
2026-04-26 00:43 28.43550 -81.29693 101 ft 0 kts 89°
2026-04-26 00:43 28.43550 -81.29692 101 ft 1 kts 89°
2026-04-26 00:43 28.43551 -81.29656 102 ft 8 kts 89°
2026-04-26 00:44 28.43541 -81.29602 102 ft 7 kts 137°
2026-04-26 00:44 28.43439 -81.29586 105 ft 33 kts 179°
2026-04-26 00:44 28.42954 -81.29582 104 ft 107 kts 179°
2026-04-26 00:44 28.41990 -81.29573 102 ft 167 kts 181°
2026-04-26 00:45 28.40779 -81.29597 671 ft 176 kts 177°
2026-04-26 00:45 28.39618 -81.29208 1431 ft 178 kts 150°
2026-04-26 00:45 28.38538 -81.28489 2226 ft 182 kts 150°
2026-04-26 00:45 28.37445 -81.27745 3027 ft 182 kts 149°
2026-04-26 00:46 28.36558 -81.26675 3609 ft 198 kts 110°
2026-04-26 00:46 28.36489 -81.25121 4343 ft 200 kts 86°
2026-04-26 00:46 28.36716 -81.23538 4947 ft 210 kts 64°
2026-04-26 00:46 28.37458 -81.22129 5787 ft 206 kts 51°
2026-04-26 00:47 28.38529 -81.21009 6400 ft 218 kts 39°
2026-04-26 00:47 28.39698 -81.19744 6690 ft 246 kts 33°
2026-04-26 00:47 28.41360 -81.19110 7025 ft 266 kts 356°
2026-04-26 00:47 28.43263 -81.19326 7616 ft 276 kts 350°
2026-04-26 00:48 28.45113 -81.19585 8747 ft 272 kts 349°
2026-04-26 00:48 28.47011 -81.19869 9663 ft 275 kts 349°
2026-04-26 00:48 28.48906 -81.20171 10490 ft 276 kts 349°
2026-04-26 00:48 28.50870 -81.20498 10918 ft 296 kts 349°
2026-04-26 00:49 28.52986 -81.20864 11243 ft 318 kts 348°
2026-04-26 00:49 28.55242 -81.21264 11580 ft 338 kts 348°
2026-04-26 00:49 28.57629 -81.21695 11921 ft 357 kts 348°
2026-04-26 00:49 28.60115 -81.22147 12619 ft 361 kts 349°
2026-04-26 00:50 28.62617 -81.22604 13425 ft 365 kts 349°
2026-04-26 00:50 28.65139 -81.23067 14145 ft 369 kts 348°
2026-04-26 00:50 28.67686 -81.23535 14794 ft 373 kts 349°
2026-04-26 00:50 28.70269 -81.24025 15396 ft 378 kts 347°
2026-04-26 00:51 28.72854 -81.24671 15997 ft 382 kts 345°
2026-04-26 00:51 28.75417 -81.25398 16583 ft 386 kts 343°
2026-04-26 00:51 28.78027 -81.26176 17150 ft 390 kts 343°
2026-04-26 00:51 28.80651 -81.26983 17728 ft 394 kts 343°
2026-04-26 00:52 28.83328 -81.27777 18279 ft 398 kts 344°
2026-04-26 00:52 28.86041 -81.28505 18843 ft 398 kts 345°
2026-04-26 00:52 28.88755 -81.29226 19343 ft 402 kts 345°
2026-04-26 00:52 28.91490 -81.29963 19820 ft 405 kts 345°
2026-04-26 00:53 28.94241 -81.30701 20268 ft 409 kts 344°
2026-04-26 00:53 28.97028 -81.31449 20715 ft 412 kts 345°
2026-04-26 00:53 28.99830 -81.32205 21142 ft 416 kts 345°
2026-04-26 00:53 29.02660 -81.32968 21566 ft 419 kts 344°
2026-04-26 00:54 29.05506 -81.33734 21978 ft 422 kts 344°
2026-04-26 00:54 29.08338 -81.34498 22380 ft 425 kts 344°
2026-04-26 00:54 29.11225 -81.35277 22775 ft 428 kts 344°
2026-04-26 00:54 29.14138 -81.36064 23156 ft 431 kts 344°
2026-04-26 00:55 29.17071 -81.36858 23521 ft 434 kts 344°
2026-04-26 00:55 29.20015 -81.37655 23837 ft 436 kts 344°
2026-04-26 00:55 29.22977 -81.38455 24144 ft 438 kts 344°
2026-04-26 00:55 29.25964 -81.39261 24450 ft 441 kts 344°
2026-04-26 00:56 29.28957 -81.40075 24730 ft 443 kts 344°
2026-04-26 00:56 29.31959 -81.40888 25024 ft 445 kts 344°
2026-04-26 00:56 29.34978 -81.41704 25310 ft 447 kts 344°
2026-04-26 00:56 29.37977 -81.42520 25586 ft 449 kts 344°
2026-04-26 00:57 29.41063 -81.43357 25862 ft 451 kts 344°
2026-04-26 00:57 29.44117 -81.44187 26127 ft 452 kts 344°
2026-04-26 00:57 29.47189 -81.45021 26384 ft 454 kts 344°
2026-04-26 00:57 29.50270 -81.45860 26633 ft 456 kts 344°
2026-04-26 00:58 29.53369 -81.46703 26877 ft 458 kts 344°
2026-04-26 00:58 29.56477 -81.47548 27108 ft 460 kts 344°
2026-04-26 00:58 29.59597 -81.48397 27332 ft 462 kts 344°
2026-04-26 00:58 29.62731 -81.49254 27558 ft 464 kts 344°
2026-04-26 00:59 29.65880 -81.50114 27777 ft 465 kts 344°
2026-04-26 00:59 29.68994 -81.50962 27980 ft 467 kts 344°
2026-04-26 00:59 29.72164 -81.51831 28182 ft 468 kts 344°
2026-04-26 00:59 29.75342 -81.52696 28384 ft 470 kts 344°
2026-04-26 01:00 29.78531 -81.53572 28565 ft 472 kts 344°
2026-04-26 01:00 29.81733 -81.54449 28757 ft 473 kts 344°
2026-04-26 01:00 29.84943 -81.55323 28952 ft 474 kts 344°
2026-04-26 01:00 29.88154 -81.56205 29137 ft 476 kts 344°
2026-04-26 01:01 29.91376 -81.57089 29297 ft 477 kts 344°
2026-04-26 01:01 29.94611 -81.57978 29468 ft 478 kts 344°
2026-04-26 01:01 29.97847 -81.58867 29731 ft 476 kts 344°
2026-04-26 01:01 30.01076 -81.59753 29917 ft 477 kts 344°
2026-04-26 01:02 30.04311 -81.60645 30047 ft 478 kts 344°
2026-04-26 01:02 30.07555 -81.61534 30187 ft 479 kts 344°
2026-04-26 01:02 30.10796 -81.62427 30313 ft 480 kts 344°
2026-04-26 01:02 30.14052 -81.63326 30451 ft 481 kts 343°
2026-04-26 01:03 30.17310 -81.64215 30556 ft 481 kts 343°
2026-04-26 01:03 30.20567 -81.65118 30667 ft 482 kts 343°
2026-04-26 01:03 30.27114 -81.66901 30839 ft 484 kts 343°
2026-04-26 01:04 30.33681 -81.68686 30974 ft 485 kts 343°
2026-04-26 01:04 30.40204 -81.70510 31063 ft 485 kts 343°
2026-04-26 01:05 30.46775 -81.72331 31149 ft 486 kts 343°
2026-04-26 01:05 30.53359 -81.74156 31210 ft 486 kts 343°
2026-04-26 01:06 30.56637 -81.75068 31450 ft 481 kts 343°
2026-04-26 01:06 30.59881 -81.75968 31577 ft 479 kts 343°
2026-04-26 01:06 30.66440 -81.77542 31551 ft 482 kts 346°
2026-04-26 01:07 30.73060 -81.78822 31548 ft 483 kts 347°
2026-04-26 01:07 30.79695 -81.80107 31539 ft 483 kts 346°
2026-04-26 01:08 30.86270 -81.81444 31540 ft 483 kts 346°
2026-04-26 01:08 30.92895 -81.82776 31536 ft 483 kts 346°
2026-04-26 01:09 30.99529 -81.84105 31547 ft 483 kts 346°
2026-04-26 01:09 31.06158 -81.85438 31553 ft 483 kts 346°
2026-04-26 01:10 31.12783 -81.86777 31551 ft 483 kts 346°
2026-04-26 01:10 31.19413 -81.88115 31612 ft 481 kts 346°
2026-04-26 01:11 31.22671 -81.88768 32099 ft 469 kts 346°
2026-04-26 01:11 31.25855 -81.89408 32489 ft 460 kts 346°
2026-04-26 01:11 31.28949 -81.90033 32757 ft 454 kts 346°
2026-04-26 01:11 31.32059 -81.90669 32777 ft 454 kts 346°
2026-04-26 01:12 31.38277 -81.91939 32784 ft 454 kts 346°
2026-04-26 01:12 31.41390 -81.92568 32910 ft 453 kts 346°
2026-04-26 01:12 31.44505 -81.93198 33104 ft 454 kts 346°
2026-04-26 01:13 31.47623 -81.93830 33295 ft 455 kts 346°
2026-04-26 01:13 31.50741 -81.94464 33515 ft 455 kts 346°
2026-04-26 01:13 31.53861 -81.95099 33724 ft 455 kts 346°
2026-04-26 01:13 31.56981 -81.95735 33948 ft 454 kts 346°
2026-04-26 01:14 31.60089 -81.96366 34136 ft 454 kts 346°
2026-04-26 01:14 31.63199 -81.97000 34319 ft 453 kts 345°
2026-04-26 01:14 31.66307 -81.97633 34458 ft 452 kts 345°
2026-04-26 01:14 31.69408 -81.98266 34638 ft 451 kts 345°
2026-04-26 01:15 31.72497 -81.98897 34829 ft 450 kts 345°
2026-04-26 01:15 31.75585 -81.99528 35023 ft 449 kts 345°
2026-04-26 01:15 31.78623 -82.00149 35217 ft 448 kts 345°
2026-04-26 01:15 31.81685 -82.00776 35411 ft 446 kts 345°
2026-04-26 01:16 31.84751 -82.01404 35620 ft 445 kts 345°
2026-04-26 01:16 31.87831 -82.01908 35775 ft 448 kts 349°
2026-04-26 01:16 31.94113 -82.02179 35875 ft 454 kts 354°
2026-04-26 01:17 32.00471 -82.02237 35901 ft 458 kts 353°
2026-04-26 01:17 32.06841 -82.02457 35910 ft 463 kts 353°
2026-04-26 01:18 32.13315 -82.02681 35914 ft 468 kts 353°
2026-04-26 01:18 32.19834 -82.02905 35901 ft 469 kts 353°
2026-04-26 01:19 32.26355 -82.03132 35897 ft 469 kts 353°
2026-04-26 01:19 32.32898 -82.03359 35893 ft 470 kts 353°
2026-04-26 01:20 32.39451 -82.03587 35910 ft 471 kts 353°
2026-04-26 01:20 32.46008 -82.03879 35899 ft 471 kts 351°
2026-04-26 01:21 32.52488 -82.04466 35893 ft 470 kts 350°
2026-04-26 01:21 32.59020 -82.05104 35891 ft 471 kts 350°
2026-04-26 01:22 32.65554 -82.05746 35894 ft 472 kts 350°
2026-04-26 01:22 32.72104 -82.06390 35873 ft 473 kts 350°
2026-04-26 01:23 32.78674 -82.07035 35881 ft 473 kts 350°
2026-04-26 01:23 32.85248 -82.07679 35874 ft 474 kts 350°
2026-04-26 01:24 32.91834 -82.08329 35891 ft 475 kts 350°
2026-04-26 01:24 32.98424 -82.08981 35875 ft 475 kts 350°
2026-04-26 01:25 33.05024 -82.09633 35874 ft 476 kts 350°
2026-04-26 01:25 33.11573 -82.10280 35872 ft 476 kts 350°
2026-04-26 01:26 33.18189 -82.10934 35868 ft 476 kts 350°
2026-04-26 01:26 33.24793 -82.11589 35878 ft 477 kts 350°
2026-04-26 01:27 33.30296 -82.12139 35879 ft 477 kts 350°
2026-04-26 01:27 33.36926 -82.12798 35913 ft 477 kts 350°
2026-04-26 01:28 33.43555 -82.13456 35916 ft 477 kts 350°
2026-04-26 01:28 33.50181 -82.14123 35910 ft 478 kts 349°
2026-04-26 01:29 33.56771 -82.14779 35905 ft 478 kts 349°
2026-04-26 01:29 33.63411 -82.15443 35903 ft 478 kts 350°
2026-04-26 01:30 33.66685 -82.16022 35894 ft 470 kts 339°
2026-04-26 01:30 33.69745 -82.17304 35904 ft 464 kts 332°
2026-04-26 01:30 33.75678 -82.20308 35898 ft 462 kts 330°
2026-04-26 01:31 33.81253 -82.24008 35893 ft 454 kts 320°
2026-04-26 01:31 33.86466 -82.28283 35889 ft 454 kts 320°
2026-04-26 01:32 33.91768 -82.32375 35892 ft 455 kts 322°
2026-04-26 01:32 33.97104 -82.36479 35895 ft 456 kts 321°
2026-04-26 01:33 34.02450 -82.40595 35911 ft 456 kts 321°
2026-04-26 01:33 34.07796 -82.44716 35905 ft 456 kts 321°
2026-04-26 01:34 34.13135 -82.48841 35900 ft 456 kts 321°
2026-04-26 01:34 34.18480 -82.52975 35897 ft 456 kts 321°
2026-04-26 01:35 34.23817 -82.57112 35895 ft 456 kts 322°
2026-04-26 01:35 34.29158 -82.61257 35901 ft 456 kts 321°
2026-04-26 01:36 34.34485 -82.65395 35895 ft 456 kts 321°
2026-04-26 01:37 34.42499 -82.71632 35889 ft 456 kts 322°
2026-04-26 01:37 34.47807 -82.75775 35915 ft 456 kts 322°
2026-04-26 01:38 34.53144 -82.79943 35938 ft 456 kts 322°
2026-04-26 01:38 34.58468 -82.84112 35928 ft 455 kts 322°
2026-04-26 01:39 34.63772 -82.88264 35922 ft 452 kts 322°
2026-04-26 01:39 34.69029 -82.92390 35926 ft 449 kts 322°
2026-04-26 01:40 34.74262 -82.96508 35921 ft 446 kts 322°
2026-04-26 01:40 34.79463 -83.00602 35934 ft 443 kts 322°
2026-04-26 01:41 34.84633 -83.04677 35910 ft 441 kts 322°
2026-04-26 01:41 34.89736 -83.08705 35897 ft 439 kts 322°
2026-04-26 01:42 34.94853 -83.12752 35891 ft 437 kts 322°
2026-04-26 01:42 34.99951 -83.16766 35900 ft 434 kts 322°
2026-04-26 01:43 35.05020 -83.20758 35918 ft 433 kts 322°
2026-04-26 01:43 35.10079 -83.24743 35901 ft 432 kts 322°
2026-04-26 01:44 35.15111 -83.28724 35914 ft 430 kts 321°
2026-04-26 01:44 35.20123 -83.32718 35932 ft 429 kts 321°
2026-04-26 01:45 35.25128 -83.36704 35918 ft 428 kts 321°
2026-04-26 01:45 35.30078 -83.40662 35920 ft 427 kts 321°
2026-04-26 01:46 35.35062 -83.44616 35870 ft 425 kts 321°
2026-04-26 01:46 35.39947 -83.48653 35908 ft 422 kts 320°
2026-04-26 01:47 35.44850 -83.52592 35902 ft 421 kts 322°
2026-04-26 01:47 35.49769 -83.56465 35920 ft 419 kts 321°
2026-04-26 01:48 35.54645 -83.60396 35936 ft 418 kts 320°
2026-04-26 01:48 35.59432 -83.64374 35926 ft 417 kts 321°
2026-04-26 01:49 35.64322 -83.68216 35926 ft 417 kts 321°
2026-04-26 01:49 35.69179 -83.72112 35930 ft 416 kts 321°
2026-04-26 01:50 35.74034 -83.76046 35924 ft 419 kts 321°
2026-04-26 01:50 35.78929 -83.80017 35929 ft 423 kts 321°
2026-04-26 01:51 35.83840 -83.83990 35923 ft 428 kts 323°
2026-04-26 01:51 35.86577 -83.85525 35939 ft 439 kts 338°
2026-04-26 01:51 35.89603 -83.86293 35959 ft 447 kts 345°
2026-04-26 01:52 35.95800 -83.87345 35951 ft 452 kts 347°
2026-04-26 01:52 36.02113 -83.87907 35942 ft 463 kts 360°
2026-04-26 01:53 36.08537 -83.86501 35942 ft 471 kts
2026-04-26 01:53 36.15001 -83.85142 35930 ft 471 kts
2026-04-26 01:54 36.21518 -83.84123 35916 ft 473 kts
2026-04-26 01:54 36.28065 -83.83025 35910 ft 476 kts
2026-04-26 01:55 36.34636 -83.81875 35950 ft 478 kts
2026-04-26 01:55 36.41200 -83.80732 35917 ft 480 kts
2026-04-26 01:56 36.47824 -83.79577 35907 ft 481 kts
2026-04-26 01:56 36.54473 -83.78419 35898 ft 482 kts
2026-04-26 01:57 36.61124 -83.77225 35905 ft 483 kts
2026-04-26 01:57 36.67743 -83.76059 35915 ft 483 kts
2026-04-26 01:58 36.74409 -83.74891 35901 ft 484 kts
2026-04-26 01:58 36.81091 -83.73723 35905 ft 485 kts
2026-04-26 01:59 36.87781 -83.72468 35913 ft 486 kts
2026-04-26 01:59 36.94481 -83.71236 35910 ft 486 kts
2026-04-26 02:00 37.01135 -83.70053 35913 ft 486 kts
2026-04-26 02:00 37.07823 -83.68870 35936 ft 486 kts
2026-04-26 02:01 37.14532 -83.67668 35920 ft 486 kts
2026-04-26 02:01 37.21154 -83.66491 35604 ft 475 kts
2026-04-26 02:01 37.24429 -83.65897 35026 ft 476 kts
2026-04-26 02:02 37.27724 -83.65323 34360 ft 477 kts
2026-04-26 02:02 37.31004 -83.65215 33736 ft 468 kts 349°
2026-04-26 02:02 37.34227 -83.65676 33029 ft 465 kts 347°
2026-04-26 02:02 37.37428 -83.66244 32343 ft 463 kts 346°
2026-04-26 02:03 37.40586 -83.66983 31678 ft 459 kts 341°
2026-04-26 02:03 37.43606 -83.68036 31030 ft 455 kts 337°
2026-04-26 02:03 37.46628 -83.69238 30383 ft 454 kts 337°
2026-04-26 02:03 37.49642 -83.70434 29708 ft 454 kts 338°
2026-04-26 02:04 37.52680 -83.71562 28948 ft 455 kts 339°
2026-04-26 02:04 37.55730 -83.72653 28240 ft 454 kts 339°
2026-04-26 02:04 37.58769 -83.73755 27523 ft 454 kts 339°
2026-04-26 02:04 37.61808 -83.74869 26838 ft 454 kts 339°
2026-04-26 02:05 37.64849 -83.75972 26164 ft 454 kts 340°
2026-04-26 02:05 37.67891 -83.77056 25512 ft 454 kts 340°
2026-04-26 02:05 37.70934 -83.78163 24871 ft 454 kts 340°
2026-04-26 02:05 37.73973 -83.79274 24244 ft 455 kts 340°
2026-04-26 02:06 37.77009 -83.80382 23640 ft 454 kts 340°
2026-04-26 02:06 37.79999 -83.81472 22953 ft 449 kts 340°
2026-04-26 02:06 37.82955 -83.82547 22226 ft 435 kts 341°
2026-04-26 02:06 37.85828 -83.83596 21511 ft 424 kts 342°
2026-04-26 02:07 37.88634 -83.84621 20819 ft 414 kts 342°
2026-04-26 02:07 37.91370 -83.85622 20148 ft 405 kts 343°
2026-04-26 02:07 37.94058 -83.86603 19521 ft 397 kts 343°
2026-04-26 02:07 37.96683 -83.87562 18961 ft 388 kts 344°
2026-04-26 02:08 37.99251 -83.88503 18482 ft 380 kts 345°
2026-04-26 02:08 38.01774 -83.89428 17890 ft 374 kts 345°
2026-04-26 02:08 38.04251 -83.90339 17277 ft 368 kts 346°
2026-04-26 02:08 38.06698 -83.91234 16668 ft 363 kts 345°
2026-04-26 02:09 38.09070 -83.92099 16296 ft 354 kts 346°
2026-04-26 02:09 38.11387 -83.92960 16128 ft 340 kts 346°
2026-04-26 02:09 38.13683 -83.93963 16060 ft 358 kts 338°
2026-04-26 02:09 38.15918 -83.95432 16040 ft 366 kts 332°
2026-04-26 02:10 38.18091 -83.97077 16030 ft 360 kts 331°
2026-04-26 02:10 38.20231 -83.98731 15707 ft 358 kts 331°
2026-04-26 02:10 38.22352 -84.00339 15341 ft 353 kts 333°
2026-04-26 02:10 38.24474 -84.01874 14995 ft 348 kts 334°
2026-04-26 02:11 38.26571 -84.03374 14674 ft 342 kts 334°
2026-04-26 02:11 38.28630 -84.04850 14349 ft 335 kts 334°
2026-04-26 02:11 38.30643 -84.06296 14024 ft 329 kts 334°
2026-04-26 02:11 38.32617 -84.07716 13710 ft 323 kts 334°
2026-04-26 02:12 38.33911 -84.08649 13476 ft 320 kts 334°
2026-04-26 02:12 38.35840 -84.10036 13132 ft 316 kts 334°
2026-04-26 02:12 38.37737 -84.11405 12782 ft 312 kts 334°
2026-04-26 02:12 38.40224 -84.13201 12343 ft 307 kts 334°
2026-04-26 02:13 38.42076 -84.14542 12013 ft 305 kts 334°
2026-04-26 02:13 38.43318 -84.15446 11799 ft 304 kts 334°
2026-04-26 02:13 38.45148 -84.16774 11473 ft 302 kts 334°
2026-04-26 02:13 38.46970 -84.18079 11151 ft 300 kts 334°
2026-04-26 02:14 38.48781 -84.19388 10826 ft 298 kts 333°
2026-04-26 02:14 38.50551 -84.20673 10521 ft 296 kts 333°
2026-04-26 02:14 38.52338 -84.21969 10215 ft 295 kts 333°
2026-04-26 02:14 38.54136 -84.23271 9915 ft 299 kts 333°
2026-04-26 02:15 38.55955 -84.24594 9588 ft 301 kts 333°
2026-04-26 02:15 38.57769 -84.25913 9260 ft 299 kts 333°
2026-04-26 02:15 38.59563 -84.27217 8928 ft 294 kts 333°
2026-04-26 02:15 38.61331 -84.28502 8601 ft 290 kts 332°
2026-04-26 02:16 38.63045 -84.29817 8263 ft 286 kts 323°
2026-04-26 02:16 38.64215 -84.31868 8095 ft 292 kts 294°
2026-04-26 02:16 38.64838 -84.34351 8034 ft 294 kts 284°
2026-04-26 02:16 38.65099 -84.36919 8005 ft 289 kts 274°
2026-04-26 02:17 38.65163 -84.39467 7983 ft 284 kts 272°
2026-04-26 02:17 38.65183 -84.41961 7968 ft 278 kts 271°
2026-04-26 02:17 38.65184 -84.44414 7956 ft 273 kts 271°
2026-04-26 02:17 38.65174 -84.46830 7954 ft 270 kts 270°
2026-04-26 02:18 38.65161 -84.49233 7956 ft 269 kts 270°
2026-04-26 02:18 38.65148 -84.51591 7924 ft 269 kts 270°
2026-04-26 02:18 38.65135 -84.53988 7732 ft 270 kts 270°
2026-04-26 02:18 38.65120 -84.56391 7540 ft 271 kts 270°
2026-04-26 02:19 38.65239 -84.58784 7317 ft 267 kts 288°
2026-04-26 02:19 38.66198 -84.60714 7110 ft 254 kts 322°
2026-04-26 02:19 38.67622 -84.61981 6923 ft 248 kts 337°
2026-04-26 02:19 38.69248 -84.62685 6753 ft 249 kts 345°
2026-04-26 02:20 38.70930 -84.63307 6514 ft 252 kts 346°
2026-04-26 02:20 38.72628 -84.63901 6264 ft 253 kts 347°
2026-04-26 02:20 38.74328 -84.64480 5997 ft 253 kts 347°
2026-04-26 02:20 38.76051 -84.64867 5724 ft 249 kts
2026-04-26 02:21 38.77767 -84.64837 5454 ft 244 kts
2026-04-26 02:21 38.79446 -84.64802 5221 ft 237 kts
2026-04-26 02:21 38.81036 -84.64778 4937 ft 219 kts
2026-04-26 02:21 38.82519 -84.64760 4654 ft 214 kts
2026-04-26 02:22 38.84027 -84.64749 4368 ft 219 kts
2026-04-26 02:22 38.85540 -84.64742 4159 ft 218 kts
2026-04-26 02:22 38.87043 -84.64747 3953 ft 216 kts
2026-04-26 02:22 38.88520 -84.64752 3659 ft 206 kts
2026-04-26 02:23 38.89894 -84.64750 3449 ft 191 kts
2026-04-26 02:23 38.91204 -84.64739 3171 ft 184 kts
2026-04-26 02:23 38.92396 -84.64735 2953 ft 159 kts
2026-04-26 02:23 38.93447 -84.64731 2732 ft 144 kts
2026-04-26 02:24 38.94407 -84.64731 2535 ft 133 kts
2026-04-26 02:24 38.95331 -84.64712 2405 ft 133 kts
2026-04-26 02:24 38.96273 -84.64697 2231 ft 138 kts
2026-04-26 02:24 38.97257 -84.64691 2039 ft 138 kts
2026-04-26 02:25 38.98185 -84.64694 1833 ft 131 kts
2026-04-26 02:25 38.99105 -84.64692 1654 ft 133 kts
2026-04-26 02:25 39.00037 -84.64657 1476 ft 138 kts
2026-04-26 02:25 39.01024 -84.64668 1354 ft 145 kts
2026-04-26 02:26 39.02014 -84.64674 1086 ft 145 kts
2026-04-26 02:26 39.03022 -84.64678 910 ft 141 kts
2026-04-26 02:26 39.03872 -84.64676 871 ft 100 kts 360°
2026-04-26 02:26 39.04411 -84.64672 874 ft 58 kts
2026-04-26 02:27 39.04740 -84.64672 875 ft 43 kts 359°
2026-04-26 02:27 39.04940 -84.64692 872 ft 23 kts 342°
2026-04-26 02:27 39.05026 -84.64740 871 ft 5 kts 330°
2026-04-26 02:27 39.05044 -84.64754 871 ft 0 kts 328°
2026-04-26 02:28 39.05057 -84.64764 871 ft 9 kts 328°
2026-04-26 02:28 39.05109 -84.64822 871 ft 10 kts 289°
2026-04-26 02:28 39.05077 -84.64880 872 ft 8 kts 189°
2026-04-26 02:28 39.05001 -84.64882 875 ft 11 kts 180°
2026-04-26 02:29 39.04928 -84.64882 876 ft 10 kts 179°
2026-04-26 02:29 39.04884 -84.64896 877 ft 3 kts 242°
2026-04-26 02:29 39.04877 -84.65011 877 ft 18 kts 271°
2026-04-26 02:29 39.04877 -84.65180 874 ft 20 kts 270°
2026-04-26 02:30 39.04879 -84.65354 872 ft 11 kts 270°
2026-04-26 02:30 39.04879 -84.65456 871 ft 12 kts 282°
2026-04-26 02:30 39.04910 -84.65477 872 ft 5 kts 18°
2026-04-26 02:30 39.04940 -84.65473 873 ft 6 kts
2026-04-26 02:31 39.04975 -84.65472 875 ft 2 kts